Location: North Wawona
(37.5477°N, 119.6446°W)
Time: 11:55:16
(UTC+00:00)

Daily predictions for brighter satellites

Satellite Brightness Start Highest point End
(mag) Time Altitude Azimuth Time Altitude Azimuth Time Altitude Azimuth
Cosmos 1898 Rocket 4.4 12:14:12 45° E 12:14:12 45° E 12:18:40 10° SE
Tiangong 1.3 12:29:07 12° ESE 12:29:07 12° ESE 12:29:24 10° ESE
Cosmos 1937 Rocket 4.2 12:31:53 45° NE 12:32:46 50° ENE 12:37:44 10° SE
Cosmos 2333 Rocket 4.1 12:29:53 14° N 12:33:45 26° ENE 12:38:28 10° ESE
USA 59 Rocket 0.7 12:36:57 56° ESE 12:36:57 56° ESE 12:41:28 10° SE
NOSS 2-1 (D) 4.2 12:37:28 55° ESE 12:37:28 55° ESE 12:41:57 10° SE
Cosmos 1892 Rocket 4.3 12:36:16 10° S 12:40:29 52° E 12:44:46 10° NNE
Aureole 1 Rocket 4.2 12:42:03 54° NW 12:43:45 70° WSW 12:51:04 10° S
Cosmos 2180 Rocket 4.4 12:46:12 65° W 12:46:23 65° W 12:52:38 10° S
COSMOS 2455 2.7 12:47:28 68° WNW 12:48:09 77° WSW 12:54:07 10° SSE
NOSS 2-1 (E) 3.7 12:50:25 68° NE 12:50:26 68° ENE 12:55:37 10° SE
Cosmos 2026 Rocket 4.3 12:45:42 10° S 12:51:39 65° E 12:57:40 10° NNE
Cosmos 2322 Rocket 4.0 12:47:08 10° N 12:51:54 27° ENE 12:56:38 10° ESE
CZ-3 Stage 3 4.3 12:46:58 35° WSW 12:52:33 59° S 13:31:12 10° ESE
ATLAS 2AS CENTAUR R/B 4.4 12:49:28 10° S 12:55:41 33° ESE 13:01:45 10° NE
NOSS 2-1 (C) 3.4 13:08:08 66° W 13:08:25 68° WSW 13:13:45 10° SSE
Meteor 2-3 Rocket 3.7 13:08:05 10° SSW 13:13:44 61° W 13:19:22 10° N
Cosmos 2237 4.2 13:12:44 39° NW 13:14:43 61° WSW 13:20:17 10° S
COSMOS 2406 4.0 13:16:23 31° NW 13:16:23 31° NW 13:20:25 10° N
Cosmos 2082 Rocket 4.3 13:20:37 11° NNW 13:20:37 11° NNW 13:20:59 10° NNW
NOAA 12 3.9 13:14:29 10° N 13:19:45 75° WNW 13:24:58 10° SSW
Cosmos 1092 Rocket 3.9 13:14:07 10° S 13:20:25 84° W 13:26:41 10° N
SL-16 R/B 2.2 13:16:46 19° NNW 13:21:00 82° ENE 13:26:39 10° SSE
SKYMED 2 3.4 13:16:55 10° SSE 13:21:15 87° WSW 13:24:23 19° NNW
Nadezhda 4 Rocket 4.4 13:15:52 10° SW 13:21:41 38° WNW 13:27:29 10° N
Cosmos 2058 Rocket 3.3 13:19:02 10° N 13:23:27 68° E 13:27:47 10° SSE
CZ-3 R/B 4.0 13:14:56 21° W 13:23:41 30° SW 13:30:58 10° SSE
Cosmos 1743 4.3 13:30:53 10° SSE 13:33:44 30° E 13:36:37 10° NNE
Meteor 2-20 4.3 13:29:57 10° NNW 13:36:00 70° W 13:42:00 10° S
BREEZE-M DEB (TANK) 2.4 13:41:51 19° SW 13:43:42 83° SSE 13:46:04 10° NE
Cosmos 2278 3.6 13:40:34 13° NNW 13:45:41 71° WSW 13:51:17 10° SSE
Cosmos 1484 Rocket 2.3 13:45:04 10° NNE 13:48:27 89° WNW 13:51:48 10° SSW
OAO 2 Rocket 3.8 13:44:17 15° WSW 13:48:30 58° S 13:53:31 10° E
Cosmos 1758 Rocket 3.6 13:45:44 10° S 13:50:09 83° E 13:54:34 10° N
ISS -0.8 13:54:29 10° S 13:57:00 20° SE 13:59:31 10° E
[s.n.66875] 3.7 13:55:01 10° SSW 13:57:09 24° SSE 13:59:19 10° E
Helios 1A Rocket 2.5 13:54:05 10° S 13:57:19 49° W 14:00:22 11° NNW
Meteor 2-20 Rocket 4.2 13:51:44 10° NNW 13:57:24 65° W 14:03:02 10° S
[s.n.66873] 3.7 13:55:43 10° SSW 13:57:52 24° SSE 14:00:01 10° E
[s.n.66876] 3.6 13:56:11 10° SSW 13:58:20 24° SSE 14:00:30 10° E
[s.n.66874] 3.6 13:56:58 10° SSW 13:59:08 25° SSE 14:01:19 10° E
[s.n.66872] 3.6 13:57:45 10° SSW 13:59:56 25° SSE 14:02:08 10° E
[s.n.66871] 3.6 13:58:17 10° SSW 14:00:29 26° SSE 14:02:42 10° E
[s.n.66870] 3.5 13:59:06 10° SSW 14:01:19 26° SSE 14:03:32 10° E
[s.n.66869] 3.5 13:59:53 10° SSW 14:02:06 27° SSE 14:04:21 10° E
[s.n.66868] 3.5 14:00:30 10° SSW 14:02:44 27° SSE 14:04:58 10° E
Tiangong 0.2 14:01:27 11° WSW 14:02:47 14° SW 14:04:29 10° S
IRS-1D 4.4 13:59:11 10° NNW 14:03:15 25° WNW 14:07:21 10° WSW
[s.n.66867] 3.4 14:01:17 10° SSW 14:03:32 27° SSE 14:05:47 10° E
[s.n.66866] 3.4 14:02:01 10° SSW 14:04:16 28° SSE 14:06:33 10° E
[s.n.66865] 3.4 14:02:34 10° SSW 14:04:50 28° SSE 14:07:07 10° E
[s.n.66860] 3.4 14:03:13 10° SSW 14:05:30 29° SSE 14:07:48 10° E
[s.n.66864] 3.3 14:03:51 10° SSW 14:06:08 29° SSE 14:08:25 10° E
[s.n.66863] 3.3 14:04:26 10° SSW 14:06:44 29° SSE 14:09:02 10° E
Cosmos 405 Rocket 2.7 14:03:54 10° SSW 14:06:57 38° WNW 14:10:02 10° N
BREEZE M DEB (TANK) 2.6 14:06:06 20° WNW 14:07:09 28° NNW 14:10:15 10° NE
[s.n.66861] 3.3 14:05:15 10° SSW 14:07:33 30° SSE 14:09:53 10° E
[s.n.66862] 3.2 14:05:54 10° SSW 14:08:13 30° SSE 14:10:33 10° E
[s.n.66859] 3.2 14:06:35 10° SW 14:08:55 31° SSE 14:11:15 10° E
[s.n.66858] 3.2 14:07:15 10° SW 14:09:36 31° SSE 14:11:56 10° E
Cosmos 2344 4.5 14:01:53 10° SSW 14:10:11 55° ESE 14:17:11 10° NE
[s.n.66857] 3.2 14:07:51 10° SW 14:10:11 32° SSE 14:12:32 10° E
[s.n.66856] 3.1 14:08:23 10° SW 14:10:44 32° SSE 14:13:07 10° E
COSMO-SKYMED 1 3.2 14:07:04 10° SSW 14:10:47 33° W 14:14:31 10° NNW
[s.n.66855] 3.1 14:09:04 10° SW 14:11:25 33° SSE 14:13:48 10° E
Cosmos 1707 4.3 14:08:50 10° NNE 14:11:35 27° ENE 14:14:19 10° SE
Cosmos 2360 Rocket 2.2 14:06:08 10° NNW 14:11:46 76° WSW 14:17:20 10° SSE
[s.n.66854] 3.1 14:09:39 10° SW 14:12:00 33° SSE 14:14:24 10° E
Cosmos 1626 Rocket 3.9 14:08:15 10° SSW 14:12:28 44° W 14:16:41 10° N
Cosmos-2242 3.7 14:08:57 10° NNW 14:12:43 32° W 14:16:26 10° SSW
[s.n.66853] 3.0 14:10:22 10° SW 14:12:44 34° SSE 14:15:08 10° E
OAO 3 Rocket 3.7 14:08:53 10° WSW 14:13:25 55° S 14:18:03 10° E
[s.n.66852] 3.0 14:11:07 10° SW 14:13:30 34° SSE 14:15:54 10° E
[s.n.66851] 3.0 14:11:38 10° SW 14:14:02 35° SSE 14:16:26 10° E
Okean 1 3.8 14:11:22 10° NNW 14:14:31 30° W 14:17:38 10° SSW
[s.n.66850] 3.0 14:12:11 10° SW 14:14:34 35° SSE 14:16:59 10° E
Cosmos 1833 4.4 14:09:10 10° SW 14:14:35 49° WNW 14:20:06 10° NNE
[s.n.66849] 2.9 14:12:54 10° SW 14:15:17 36° SSE 14:17:43 10° E
[s.n.66848] 2.9 14:13:26 10° SW 14:15:50 36° SSE 14:18:16 10° E
Cosmos 2333 Rocket 2.6 14:12:46 10° NW 14:18:12 43° WSW 14:23:32 10° S
BREEZE-M DEB (TANK) 4.3 14:15:21 11° WNW 14:19:38 26° SW 14:22:22 10° S
SL-4 R/B 2.9 14:16:53 10° NNW 14:19:43 28° NNE 14:22:29 10° E
ATLAS 3B R/B 4.4 14:15:03 10° NNW 14:21:44 30° NE 14:28:08 10° ESE
USA 59 Rocket 2.3 14:23:39 10° W 14:24:59 11° WSW 14:26:25 10° SW
MOS 1 Rocket 4.3 14:19:50 10° NNE 14:25:08 59° E 14:30:14 10° S
IGS 5A 3.9 14:22:43 10° N 14:26:24 36° WNW 14:30:04 10° SW
Cosmos 2219 Rocket 2.3 14:22:40 10° NNW 14:28:21 86° ENE 14:33:57 10° SSE
ARIANE 5 R/B 3.0 14:24:45 10° NNE 14:29:59 71° ESE 14:35:10 10° S
SAR-Lupe-4 3.6 14:29:55 10° NNE 14:33:29 84° E 14:37:01 10° SSW
ARIANE 6 FM1 Upper Stage 4.3 14:30:11 10° S 14:34:01 40° ESE 14:37:47 10° NE
Cosmos 2322 Rocket 2.7 14:30:44 10° NW 14:36:01 40° WSW 14:41:14 10° S
